TimeMST,TemperatureF,Dew PointF,Humidity,Sea Level PressureIn,VisibilityMPH,Wind Direction,Wind SpeedMPH,Gust SpeedMPH,PrecipitationIn,Events,Conditions,WindDirDegrees,DateUTC
12:53 AM,10.9,1.0,64,30.35,10.0,SE,8.1,-,N/A,,Clear,140,2012-12-10 07:53:00
1:53 AM,9.0,-0.0,67,30.37,10.0,South,5.8,-,N/A,,Clear,170,2012-12-10 08:53:00
2:53 AM,7.0,-0.9,70,30.37,10.0,SSE,6.9,-,N/A,,Clear,150,2012-12-10 09:53:00
3:53 AM,8.1,-0.0,70,30.35,10.0,SSE,5.8,-,N/A,,Overcast,150,2012-12-10 10:53:00
4:53 AM,10.0,1.0,67,30.36,10.0,SSE,3.5,-,N/A,,Overcast,160,2012-12-10 11:53:00
5:53 AM,12.0,3.0,67,30.36,10.0,SSE,4.6,-,N/A,,Overcast,160,2012-12-10 12:53:00
6:53 AM,9.0,1.9,73,30.37,10.0,SSE,4.6,-,N/A,,Clear,150,2012-12-10 13:53:00
7:53 AM,10.0,3.0,73,30.37,10.0,South,6.9,-,N/A,,Overcast,180,2012-12-10 14:53:00
8:53 AM,15.1,3.9,61,30.34,10.0,Calm,Calm,-,N/A,,Clear,0,2012-12-10 15:53:00
9:53 AM,16.0,5.0,62,30.32,10.0,South,4.6,-,N/A,,Scattered Clouds,180,2012-12-10 16:53:00
10:53 AM,19.0,3.0,50,30.30,10.0,Calm,Calm,-,N/A,,Overcast,0,2012-12-10 17:53:00
11:53 AM,21.0,3.9,48,30.27,10.0,SE,3.5,-,N/A,,Overcast,140,2012-12-10 18:53:00
12:53 PM,21.9,5.0,48,30.25,10.0,East,5.8,-,N/A,,Overcast,80,2012-12-10 19:53:00
1:53 PM,23.0,3.0,42,30.23,10.0,Calm,Calm,-,N/A,,Overcast,0,2012-12-10 20:53:00
2:53 PM,23.0,5.0,46,30.23,10.0,Calm,Calm,-,N/A,,Overcast,0,2012-12-10 21:53:00
3:53 PM,24.1,3.9,42,30.20,10.0,Calm,Calm,-,N/A,,Overcast,0,2012-12-10 22:53:00
4:53 PM,23.0,6.1,48,30.18,10.0,Calm,Calm,-,N/A,,Scattered Clouds,0,2012-12-10 23:53:00
5:53 PM,21.9,10.9,63,30.17,10.0,Calm,Calm,-,N/A,,Mostly Cloudy,0,2012-12-11 00:53:00
6:53 PM,19.9,15.1,81,30.21,10.0,WSW,4.6,-,N/A,,Mostly Cloudy,250,2012-12-11 01:53:00
7:53 PM,19.9,14.0,78,30.24,10.0,Calm,Calm,-,N/A,,Overcast,0,2012-12-11 02:53:00
8:53 PM,19.9,14.0,78,30.22,10.0,SSE,4.6,-,N/A,,Overcast,160,2012-12-11 03:53:00
9:53 PM,17.1,12.0,81,30.22,10.0,East,5.8,-,N/A,,Partly Cloudy,80,2012-12-11 04:53:00
10:53 PM,17.1,10.9,77,30.22,10.0,South,6.9,-,N/A,,Scattered Clouds,190,2012-12-11 05:53:00
11:53 PM,15.1,10.0,80,30.22,10.0,Calm,Calm,-,N/A,,Clear,0,2012-12-11 06:53:00